Location: Bjelajci
(45.0103°N, 16.1758°E)
Time: 19:58:26
(UTC+00:00)

Cosmos 1743 - Pass Details

Date: 14 July 2020
Orbit: 511 x 526 km, 82.6° (Epoch: 05 August)

Event Time Altitude Azimuth Distance (km) Brightness Sun altitude
Exits shadow 01:27:36 13° 158° (SSE) 1,574 4.8 -15.5°
Maximum altitude 01:30:42 37° 92° (E) 812 3.9 -15.2°
Drops below altitude 10° 01:34:15 10° 25° (NNE) 1,754 6.7 -14.8°
Sets 01:36:30 0° 17° (NNE) 2,649 7.7 -14.6°
